Location: Home
(42.5358°N, 72.7383°W)
Time: 01:21:19
(UTC-05:00)

Vanguard 1 - Pass Details

Date: 01 December 2021
Orbit: 652 x 3830 km, 34.2° (Epoch: 21 January)

Event Time Altitude Azimuth Distance (km) Brightness Sun altitude
Rises 06:03:10 0° 281° (W) 7,652 - -10.5°
Exits shadow 06:08:21 - 276° (W) 6,503 13.6 -9.7°
Reaches altitude 10° 06:09:20 10° 275° (W) 6,279 13.5 -9.5°
Maximum altitude 06:24:59 37° 217° (SW) 3,206 12.6 -6.8°
Drops below altitude 10° 06:34:27 10° 154° (SSE) 3,812 13.9 -5.2°
Sets 06:37:13 0° 145° (SE) 4,453 14.6 -4.8°
